Theta_e
291 291 290 290 290 289 288 288 288 288 289 289 289 288 288 288 289 289 289 289 288 290 290 289 289 290 289 289 289 290 290 290 290 291 291 291 291 294 299 301 304 306 307 309 311 313 315 315 316 317 318 318 319 320 321 321 321 322 322 323 323 324 324 324 324 325 327 328 329 329 329 330 331 335 338 340 341 342 342 343 343 345 345 345 344
291 290 290 289 289 289 288 288 287 288 288 289 289 288 287 288 288 288 288 288 288 290 289 289 289 289 289 289 289 289 289 289 290 290 290 290 290 292 297 299 302 304 306 308 310 312 313 314 315 316 317 318 319 320 320 320 320 320 321 321 322 323 323 323 324 324 324 324 327 329 330 330 330 332 334 337 340 341 341 342 342 341 342 345 344
290 289 289 289 288 288 287 287 286 287 288 288 289 288 287 288 289 288 288 287 288 288 289 288 287 288 288 288 288 289 289 289 289 290 290 290 290 290 292 297 300 302 304 306 308 310 311 312 314 315 316 317 318 318 318 319 319 320 321 321 322 323 323 323 323 323 324 324 325 326 327 329 330 332 333 335 339 340 340 341 342 341 341 340 343
290 289 289 288 288 288 287 287 286 286 288 287 288 288 288 288 288 288 288 288 288 288 289 287 287 287 287 288 288 288 288 288 288 289 289 289 289 290 290 293 297 300 302 304 307 308 310 311 312 313 314 315 316 317 317 318 319 319 320 320 321 322 322 322 322 322 323 323 324 325 325 326 327 328 330 331 333 337 339 340 341 341 341 340 339
290 290 291 288 288 287 287 287 287 287 287 288 287 286 287 287 287 288 288 287 287 287 289 287 286 287 287 287 288 287 288 288 288 288 289 289 289 289 289 291 292 297 299 302 305 306 308 309 310 311 312 313 314 315 316 317 318 318 318 320 320 321 322 322 321 322 322 322 322 322 322 323 324 325 327 328 330 331 334 338 340 341 341 341 341
290 289 289 288 288 287 287 286 286 287 287 287 286 286 286 287 287 286 290 287 286 287 286 286 286 286 286 286 286 287 287 287 288 288 288 288 288 288 289 290 290 291 293 299 301 303 306 308 309 309 311 312 313 314 315 316 316 316 317 319 320 321 322 321 320 320 321 323 322 322 322 323 324 324 325 325 327 329 330 331 336 339 340 340 340
290 289 288 288 287 287 286 286 287 287 286 286 286 286 286 286 286 286 285 286 285 287 285 285 285 286 286 287 286 287 287 287 288 287 287 288 288 288 289 290 290 291 292 292 296 299 303 306 308 309 310 311 311 312 314 315 314 314 316 318 318 316 316 316 317 318 318 319 320 321 321 321 321 322 324 325 325 326 327 329 330 333 338 340 340
289 289 288 287 287 286 286 286 286 286 286 286 286 286 285 286 286 286 285 285 285 284 284 284 285 285 286 286 286 288 287 287 287 287 287 287 288 288 289 289 290 290 295 293 293 295 300 303 306 307 306 307 308 309 310 311 312 314 315 315 315 315 315 315 317 318 318 318 318 318 319 318 319 319 320 321 322 324 326 327 328 329 331 336 338
289 288 288 287 286 286 286 286 286 285 285 284 285 286 285 287 285 287 285 284 284 284 284 284 285 286 286 286 286 287 286 286 286 286 289 287 287 287 288 289 290 295 292 291 293 293 297 302 304 304 304 306 306 307 308 310 312 312 311 312 313 313 313 313 315 316 316 316 315 316 316 317 317 318 319 320 321 322 323 325 327 328 329 330 335
288 288 287 287 286 286 286 286 286 285 284 284 284 284 284 285 284 285 284 283 283 283 284 284 286 286 285 285 285 285 286 286 286 290 287 286 286 286 287 288 289 289 290 291 291 293 293 297 300 300 301 303 304 306 307 308 308 309 311 311 311 311 311 312 313 313 313 313 313 314 315 316 316 317 318 319 321 323 324 325 326 327 328 329 329
288 287 287 287 286 285 285 285 285 284 284 284 284 285 285 284 284 283 284 284 284 284 284 285 285 285 285 285 285 285 286 285 288 286 285 285 286 290 289 288 288 289 290 290 290 290 292 291 291 291 292 299 303 304 305 305 305 307 309 309 309 309 309 311 311 312 312 312 313 313 314 315 315 316 317 318 320 322 323 323 323 324 325 328 329
287 287 287 286 285 285 285 285 285 284 284 284 283 283 283 283 283 283 283 285 285 284 284 284 283 283 284 285 284 284 285 285 285 285 286 285 285 287 285 286 286 286 286 287 287 288 287 287 289 288 290 294 300 301 303 303 303 305 306 307 308 308 309 310 311 311 310 310 310 311 312 313 314 315 315 317 318 319 320 321 322 322 323 325 327
287 287 286 287 285 285 285 284 285 284 284 284 283 283 283 283 285 285 283 282 283 283 283 283 282 281 282 282 283 283 285 286 284 284 285 285 285 285 285 284 284 284 285 286 286 285 286 288 289 289 289 290 292 296 299 300 299 301 303 304 307 308 310 309 309 309 308 308 309 310 311 313 313 314 315 316 316 317 318 319 320 321 322 323 325
287 286 286 286 285 285 285 284 284 284 284 284 283 286 285 283 283 282 283 282 282 283 284 281 279 279 279 280 280 282 284 284 283 283 285 285 285 285 284 284 285 285 286 285 285 285 287 288 288 289 289 290 290 290 291 291 293 298 301 304 306 307 307 307 307 307 307 308 309 310 311 311 312 313 314 315 316 316 317 318 318 319 320 322 324
287 287 286 286 285 285 285 284 284 285 284 283 284 284 283 283 282 281 281 282 283 284 282 282 279 280 280 279 276 278 282 280 281 284 285 284 285 283 285 284 285 285 285 285 285 286 288 287 287 288 288 289 289 289 290 291 291 296 299 300 300 303 305 306 306 307 308 308 309 309 310 310 311 311 312 313 314 315 316 317 318 318 319 320 321
287 286 286 285 285 285 284 284 284 285 284 283 283 282 282 282 282 283 282 280 279 281 283 282 281 279 276 278 277 278 275 276 280 283 283 283 282 283 283 284 284 284 285 285 286 286 287 287 287 288 287 287 288 287 288 288 291 293 293 294 295 298 301 304 306 307 307 308 308 308 309 310 310 311 312 312 313 313 314 315 316 317 317 318 320
286 286 286 285 284 284 284 284 284 284 283 282 282 282 282 282 282 282 281 280 280 279 281 282 282 282 279 277 276 276 275 276 279 279 280 281 282 282 284 284 283 284 284 285 285 286 286 286 285 285 286 286 285 286 287 287 287 289 288 289 292 295 298 302 304 305 306 307 308 308 308 309 310 311 311 312 312 313 313 314 314 315 316 317 319
286 286 286 285 284 284 283 283 283 283 283 282 282 282 281 281 282 282 281 281 280 280 279 282 282 283 280 279 279 275 276 278 277 275 280 282 282 282 282 282 282 283 283 284 284 284 285 284 284 284 284 284 284 285 285 285 287 286 286 287 294 295 296 297 301 304 306 307 307 308 309 309 309 310 311 312 312 313 313 314 314 314 315 316 318
285 285 285 285 284 283 283 283 283 283 284 282 282 282 282 281 282 281 281 284 281 279 280 280 279 280 281 281 282 282 281 278 276 276 276 278 278 280 280 281 281 282 283 282 282 282 283 283 283 283 283 283 284 284 284 285 287 288 291 292 292 294 295 296 297 300 303 304 306 307 308 309 310 311 311 311 312 312 313 313 314 314 315 316 317
285 284 285 284 284 283 283 283 283 282 283 282 282 281 282 282 282 281 282 282 281 280 279 279 278 279 282 280 280 280 279 279 279 277 276 274 277 280 280 279 281 281 282 282 281 281 282 282 282 282 282 283 283 283 284 284 284 285 286 290 292 293 294 295 296 297 299 301 304 305 306 307 309 309 309 309 310 312 312 313 314 314 314 315 316
285 284 284 284 284 283 282 282 282 282 284 282 281 281 281 281 281 281 281 281 281 281 279 278 279 278 278 278 278 278 278 278 278 277 276 275 275 276 277 280 280 280 280 281 281 282 282 282 282 283 284 283 283 283 283 283 283 284 288 290 291 292 293 294 295 296 297 298 300 302 305 307 308 309 309 309 309 310 311 312 313 314 314 315 315
284 284 283 283 283 283 282 282 282 282 283 281 281 281 281 280 280 280 280 280 281 281 280 279 280 279 279 279 278 277 277 276 276 276 276 276 275 275 276 276 276 278 280 280 280 280 281 282 281 281 282 282 282 282 282 283 284 286 288 289 290 291 293 294 295 295 295 295 296 297 300 302 304 305 307 308 310 310 311 311 312 313 314 314 315
283 283 283 283 283 283 282 282 282 283 282 281 281 281 280 280 280 280 280 280 280 281 283 280 280 279 278 278 278 278 277 277 276 277 276 275 275 275 276 277 276 276 278 280 281 281 281 281 281 281 281 281 282 282 282 282 286 288 288 288 290 291 292 293 293 293 293 294 294 295 296 297 298 299 301 303 305 308 310 311 311 311 311 313 313
283 283 282 282 282 282 282 281 281 282 281 281 280 280 280 280 279 279 279 279 279 280 280 279 278 278 278 278 278 279 278 277 278 278 277 276 276 275 275 276 276 276 278 279 280 280 280 280 280 281 281 281 281 282 283 284 284 287 286 287 288 289 290 291 291 291 292 292 292 294 295 295 295 296 299 301 302 304 308 309 309 310 311 312 312
282 282 282 282 282 281 281 281 281 281 281 280 280 280 280 279 279 279 279 279 279 279 278 278 278 277 277 277 278 278 278 278 278 277 277 277 276 274 275 276 274 275 277 277 276 278 280 280 280 280 279 280 282 282 282 283 282 285 286 285 287 287 288 289 290 290 291 291 292 293 294 294 295 297 299 301 301 302 306 307 308 309 311 311 312
283 283 283 282 282 282 282 281 281 281 280 280 280 280 279 279 279 278 278 278 278 278 278 277 277 277 277 277 276 277 277 278 277 277 277 276 275 275 274 275 275 274 276 275 276 276 277 278 279 280 280 280 280 281 281 281 281 284 284 283 283 286 287 288 290 290 291 291 291 292 292 292 295 296 297 300 301 302 304 306 307 307 308 310 311
283 283 283 282 282 281 281 280 280 280 280 280 280 279 279 279 279 278 278 278 278 278 277 277 277 276 276 276 277 277 277 277 277 277 277 277 276 275 274 272 273 274 274 276 276 276 276 277 280 279 279 280 280 280 281 280 282 284 283 281 281 283 284 286 287 288 289 290 290 291 291 291 292 294 295 296 298 300 302 303 304 306 306 307 307
283 283 282 282 281 281 281 280 280 280 280 279 279 279 278 278 278 278 277 279 277 277 277 277 277 277 276 276 276 276 277 277 277 277 277 277 277 276 275 274 272 270 273 274 274 275 278 277 278 279 279 279 280 280 282 281 280 283 282 279 278 279 281 283 285 287 289 289 290 290 290 290 291 292 293 293 294 295 297 298 299 299 298 298 299
283 283 282 282 281 281 280 280 280 279 279 279 279 278 278 278 277 277 277 278 278 277 277 277 276 276 276 276 276 276 276 276 277 277 277 276 277 276 276 275 274 272 270 271 273 274 277 278 276 278 279 279 278 279 278 278 280 280 278 277 277 276 279 283 285 287 287 288 287 288 289 289 290 290 291 292 293 293 294 295 295 296 297 297 298
282 282 282 281 281 281 280 279 279 279 279 278 278 278 278 277 277 277 277 277 277 276 276 276 276 276 276 276 276 276 276 276 276 276 276 276 275 276 276 276 276 273 272 271 271 275 275 278 278 277 278 278 279 278 278 277 279 278 277 276 276 276 280 282 283 284 284 285 286 287 288 288 288 289 289 290 291 292 293 294 294 295 296 297 298
281 281 281 280 280 280 279 279 278 278 278 278 278 278 277 277 277 276 276 276 276 275 275 276 275 276 275 275 275 275 275 275 276 276 277 277 276 276 276 276 276 275 274 273 270 274 276 276 277 278 277 277 277 276 276 276 277 277 276 275 275 278 280 279 280 282 283 283 284 285 287 287 288 289 289 289 291 291 292 292 293 293 294 295 297
281 281 280 280 280 279 279 279 278 278 278 278 278 277 277 277 276 276 275 275 275 274 274 275 275 275 274 274 274 274 275 275 275 275 275 276 276 275 275 275 274 275 274 273 272 272 276 276 276 276 276 275 275 274 274 274 276 277 275 275 275 278 276 275 278 280 281 282 283 284 285 286 287 288 288 288 289 291 291 292 292 293 293 294 296
280 280 280 280 279 279 278 278 278 277 277 277 277 277 276 275 275 275 274 274 274 273 273 273 274 274 274 273 273 273 274 273 273 274 274 273 273 273 273 273 272 273 272 271 270 270 272 275 275 274 274 274 273 273 273 273 274 274 276 274 275 274 274 274 275 278 280 281 282 284 285 286 287 288 288 288 289 290 290 291 291 292 293 294 295
280 280 280 279 279 279 278 278 278 277 277 277 277 276 275 275 274 275 274 274 273 273 273 272 273 273 273 272 272 272 272 272 271 272 272 272 271 271 271 272 271 271 272 270 269 268 268 271 271 273 273 274 271 274 273 273 273 274 273 274 274 274 274 274 274 275 279 281 282 284 285 286 287 287 288 288 288 289 290 291 291 291 293 294 294
279 280 279 279 279 278 278 277 277 277 277 276 276 275 275 274 274 274 274 273 273 273 272 272 272 272 271 271 270 270 271 270 270 271 271 271 271 270 270 271 270 271 271 271 269 268 268 268 271 271 272 272 272 272 273 273 274 274 273 273 274 274 275 275 274 275 279 281 283 284 285 285 286 287 287 288 288 288 289 290 291 291 292 292 292
279 279 279 278 278 278 277 277 276 276 276 275 275 275 275 274 274 273 273 273 273 272 272 271 271 271 270 270 269 269 269 269 269 269 270 270 270 270 270 270 270 270 271 271 270 269 269 268 269 270 271 271 272 273 273 274 273 273 273 274 274 274 274 275 274 274 277 281 282 283 284 285 285 286 286 286 287 287 288 289 289 290 289 289 290
279 278 278 278 277 277 277 276 276 275 275 275 274 274 274 274 273 273 273 272 272 272 271 271 272 270 270 269 269 269 269 268 268 268 269 269 270 270 270 270 270 271 271 271 270 270 269 268 269 271 272 272 272 272 273 273 273 273 274 274 274 274 274 275 275 276 279 281 281 281 282 283 284 285 286 286 286 287 287 288 288 288 288 289 289
278 278 277 277 277 277 276 276 275 275 275 274 274 274 273 273 273 272 272 271 271 271 270 270 270 270 270 269 269 270 269 268 268 268 269 269 269 269 270 270 270 271 270 270 271 270 270 269 269 269 271 271 271 272 273 274 273 272 273 274 274 274 274 274 274 276 276 276 276 276 279 279 281 283 284 285 286 286 287 287 288 288 288 288 289
277 277 277 276 276 276 276 275 275 274 274 274 273 273 273 272 272 271 271 270 270 270 270 270 270 270 270 270 270 270 269 269 268 268 269 269 270 269 270 269 270 270 270 270 270 270 270 270 270 270 270 272 272 271 273 274 273 273 272 272 272 274 275 274 274 275 276 276 278 280 280 280 281 281 282 284 285 286 286 287 287 287 287 288 289
277 277 276 276 275 275 275 274 274 274 273 273 273 272 272 272 271 271 270 270 270 270 270 270 271 271 271 270 270 270 270 270 270 270 270 270 270 270 271 271 271 271 271 271 271 270 270 270 270 270 271 271 272 273 274 273 272 273 274 273 272 273 274 275 275 274 275 275 275 275 278 279 279 280 281 282 283 284 284 284 285 286 286 286 286
277 276 276 276 275 274 274 273 273 273 273 273 272 272 271 271 271 270 270 270 270 269 270 270 270 270 270 270 271 271 271 273 274 274 273 273 271 270 271 272 272 271 271 271 270 270 270 270 270 271 271 271 272 272 271 272 271 272 274 274 273 274 274 274 275 276 275 275 275 275 275 276 276 276 276 276 277 280 280 283 284 284 284 285 286
276 276 275 275 274 274 273 273 272 273 272 272 274 277 276 272 271 270 270 270 270 270 270 270 270 270 271 271 272 274 274 275 275 276 277 278 278 276 274 274 273 272 271 271 270 271 270 269 270 270 270 270 271 272 272 273 274 275 275 275 273 274 274 273 274 275 277 276 275 274 275 277 277 277 277 277 279 281 281 280 279 281 283 285 285
275 274 274 274 273 273 273 272 272 272 272 273 277 279 279 277 272 271 270 270 270 270 270 270 270 271 272 272 272 274 275 276 275 277 277 277 277 277 278 278 278 275 274 273 273 274 273 272 273 273 272 272 273 274 274 275 275 275 274 274 273 273 272 271 270 273 277 275 274 274 273 276 277 276 277 279 280 279 279 279 283 283 283 285 286
274 274 274 274 274 273 273 273 272 272 272 276 280 280 280 279 276 271 270 270 270 270 271 271 271 272 272 273 273 273 273 273 272 272 274 276 276 277 277 278 278 279 279 276 274 274 274 273 273 273 274 273 274 275 274 274 273 273 274 273 273 272 272 271 271 271 275 276 274 273 273 276 277 276 276 277 278 278 278 281 283 283 285 286 286
274 273 274 274 273 273 273 272 272 272 272 278 281 281 281 280 278 273 270 270 270 271 271 272 272 273 273 273 273 273 273 275 274 272 272 272 275 276 277 277 278 278 279 279 280 277 276 274 274 273 274 274 273 273 274 274 275 273 274 273 273 273 273 272 273 273 274 276 274 273 272 274 275 274 274 275 276 276 277 281 283 284 284 285 286
274 274 274 273 273 273 273 272 272 272 271 277 281 282 281 281 279 275 270 270 271 272 273 273 273 273 273 273 272 271 271 271 272 272 272 272 273 273 274 274 274 276 278 278 278 278 278 275 274 273 275 275 274 275 276 276 275 273 273 272 274 273 273 273 275 275 276 277 274 273 271 273 275 274 273 275 276 276 277 280 283 284 285 286 286
274 274 273 273 273 273 272 272 272 271 271 278 281 282 282 282 280 276 271 272 273 273 274 274 274 274 273 272 271 271 271 270 271 273 272 273 273 273 273 274 275 275 275 275 275 276 276 276 276 275 276 276 276 276 276 276 275 275 276 275 275 275 275 276 275 276 275 277 276 274 269 273 275 274 274 275 276 276 277 281 283 284 285 286 286
274 274 274 273 272 272 272 271 271 270 270 278 281 282 282 282 282 275 273 273 273 274 274 274 274 273 272 272 271 270 270 271 273 276 276 275 275 274 273 274 274 274 275 277 279 279 277 276 276 276 276 276 278 277 277 277 277 277 276 276 275 274 272 271 270 272 272 276 277 274 272 272 275 274 274 276 277 276 277 277 282 284 285 286 286
273 273 272 272 272 271 271 270 270 269 269 277 281 282 282 282 281 275 274 273 273 273 273 273 272 272 271 271 271 271 271 272 275 276 277 277 275 273 273 273 274 274 274 275 277 278 279 279 279 279 280 280 280 280 280 280 277 276 273 270 269 271 269 268 269 270 271 274 275 276 274 272 275 275 275 276 276 277 276 277 278 282 284 285 286
273 272 272 271 270 270 270 270 270 269 269 276 281 281 281 282 279 273 273 273 273 272 272 272 271 270 271 274 273 272 272 273 276 277 277 276 274 274 274 273 272 271 272 274 274 274 276 277 278 278 278 277 277 277 277 276 276 275 270 268 269 270 268 268 267 269 271 273 274 277 274 273 274 275 273 275 276 277 277 278 279 280 283 284 285
272 271 270 270 269 270 270 270 273 270 269 275 281 281 281 281 278 274 273 272 271 271 270 269 270 269 270 273 275 275 275 275 277 277 277 276 274 274 274 272 271 271 271 272 271 270 271 272 273 271 271 271 270 269 269 274 275 274 271 270 270 269 268 268 269 269 268 270 275 277 273 273 274 275 275 273 272 276 279 279 279 279 280 280 281
Wind_Speed
7 7 6 6 6 6 6 5 4 4 3 2 3 3 3 3 4 4 4 4 5 5 4 4 4 5 5 5 5 6 6 6 6 6 6 6 7 8 13 14 15 15 14 14 13 13 13 12 13 13 13 13 13 13 13 14 14 15 15 15 16 15 15 15 15 15 16 16 15 15 15 14 14 13 12 12 13 14 14 17 17 15 16 16 16
8 6 7 7 6 6 5 5 5 4 4 5 3 3 4 3 3 3 4 3 4 4 4 4 5 4 5 6 6 6 5 5 6 6 6 6 6 6 10 13 14 15 15 14 14 14 14 14 14 14 14 14 14 14 14 15 15 16 16 16 16 16 15 15 15 15 15 15 16 16 16 15 14 14 14 13 11 13 15 15 15 18 18 17 20
7 7 6 7 7 6 6 5 5 4 4 4 2 4 4 5 4 4 4 4 4 3 4 5 5 5 5 5 6 6 6 5 6 6 6 6 6 6 6 11 13 14 14 14 14 14 14 14 14 14 14 14 14 15 15 16 17 17 17 17 16 16 15 15 15 15 15 14 14 15 15 16 15 15 15 14 12 12 13 13 14 15 19 20 17
8 7 7 7 7 7 6 5 5 4 4 4 3 3 4 3 3 3 3 3 4 4 3 4 4 5 5 5 5 6 6 6 6 6 6 6 6 7 6 7 10 13 13 13 14 14 15 15 15 14 14 14 15 15 16 16 17 17 17 17 17 16 16 15 15 15 15 15 15 15 16 16 16 16 15 16 16 13 12 12 13 14 15 18 22
8 8 7 7 7 7 6 5 5 5 4 4 4 3 3 4 3 2 3 3 3 3 3 3 3 4 4 4 5 6 5 6 6 6 6 6 6 6 6 6 6 9 11 12 12 13 15 15 14 14 13 13 13 14 15 16 17 18 18 17 17 17 17 17 17 16 16 15 15 15 16 17 17 17 16 16 16 16 15 13 14 14 14 15 16
8 7 7 7 7 6 6 6 5 4 4 4 6 4 5 4 3 4 3 4 4 3 4 4 3 2 3 3 4 5 6 5 5 5 5 6 6 6 6 6 6 6 6 9 10 12 13 14 15 15 14 14 14 14 14 14 16 18 18 17 17 17 18 19 19 19 18 17 16 15 15 16 16 16 16 16 16 16 16 16 15 15 15 14 15
7 8 8 7 7 6 6 6 5 4 5 4 5 3 4 4 3 5 3 3 3 3 3 3 3 5 4 4 5 5 4 5 5 4 5 5 5 5 5 5 5 5 5 6 7 10 11 14 15 16 16 16 15 14 14 14 16 16 16 16 17 19 20 21 20 19 18 18 18 17 17 18 18 19 18 17 16 16 16 17 17 17 16 17 17
7 7 7 7 7 7 6 5 5 5 5 4 4 4 3 4 3 3 4 3 3 3 3 3 3 4 4 5 5 5 5 5 5 5 5 5 5 4 5 5 6 6 6 6 6 6 11 12 14 14 14 15 15 15 15 16 16 14 14 16 18 20 21 21 20 19 19 18 18 17 18 18 19 19 19 19 19 18 17 17 17 17 17 17 17
7 7 7 7 7 6 6 6 4 5 4 4 4 4 3 4 3 3 3 3 3 3 3 3 4 4 4 5 6 6 6 5 5 5 4 4 4 3 4 4 4 5 5 5 6 5 7 10 11 12 12 14 15 16 16 15 14 14 15 17 18 20 21 21 20 19 19 19 19 18 18 18 18 19 19 19 19 18 18 17 17 17 18 18 18
7 7 7 6 6 6 6 5 5 5 5 4 4 2 3 4 3 2 3 3 3 3 3 3 4 5 5 5 6 5 6 5 5 4 4 4 4 4 4 4 4 4 3 3 3 4 4 6 9 10 10 12 16 16 15 15 16 17 17 17 18 20 21 20 20 20 20 20 20 19 19 18 18 18 19 19 19 18 18 18 18 18 18 18 18
7 7 7 7 7 6 6 5 5 6 5 4 4 3 3 2 3 2 2 2 3 2 1 2 4 5 5 6 5 6 6 4 4 4 4 3 3 3 3 5 4 3 3 3 3 3 3 4 4 5 6 11 15 17 17 18 18 18 18 18 19 20 20 19 20 20 20 20 21 21 20 19 19 19 19 19 19 20 20 19 19 20 20 20 19
7 7 7 7 7 6 6 5 5 5 6 5 4 5 4 4 3 3 3 2 2 1 2 3 3 3 6 5 4 7 6 4 2 3 3 3 3 3 4 4 3 3 3 2 1 2 2 3 4 6 6 9 15 16 18 18 17 19 20 20 20 20 19 19 20 20 21 23 24 23 22 20 19 19 19 19 19 19 19 19 20 20 20 20 20
7 7 8 7 6 6 6 5 5 5 5 5 5 5 4 4 4 2 3 3 1 2 3 3 5 5 2 3 5 5 5 3 2 1 2 5 3 3 3 3 3 4 3 2 3 3 4 5 6 6 6 6 7 10 14 15 17 20 21 21 20 19 18 19 20 22 24 25 25 23 22 21 20 20 19 19 19 19 19 19 20 20 20 21 21
7 7 7 7 7 7 6 6 6 5 5 4 4 4 4 3 4 2 0 2 1 0 3 2 5 2 6 7 4 7 4 1 2 1 8 5 3 0 2 3 5 4 3 3 3 3 3 4 4 5 5 5 6 6 7 8 9 17 20 20 19 18 19 21 22 24 25 24 23 23 23 22 22 21 21 20 20 20 20 20 20 21 21 21 21
8 8 8 7 7 7 7 6 6 6 6 5 4 4 4 4 4 4 4 2 3 1 3 4 2 2 1 2 4 7 6 4 3 6 9 4 1 3 4 3 5 3 2 3 4 4 3 4 4 4 4 4 5 6 7 7 10 14 16 17 21 23 23 23 23 23 23 23 23 24 24 24 24 23 22 21 21 21 21 21 21 21 21 22 22
7 7 6 7 7 8 6 6 6 5 6 6 5 5 3 3 2 1 4 4 2 1 2 3 2 2 5 1 2 2 2 2 5 10 4 2 3 4 2 4 4 3 3 4 4 4 5 4 4 4 4 4 4 5 6 6 9 11 12 14 18 22 23 22 22 22 23 24 25 25 25 25 25 24 23 23 22 22 23 22 22 22 21 22 22
8 8 8 8 7 6 7 6 6 5 5 6 6 6 5 4 3 3 2 6 4 2 1 3 4 2 2 2 3 3 1 3 6 7 0 4 2 1 2 3 3 4 4 4 4 4 5 5 4 4 3 4 4 5 5 5 6 5 8 10 12 17 19 21 22 23 23 24 24 24 25 25 25 25 25 24 24 24 24 24 24 23 23 22 22
9 9 8 7 8 7 6 7 6 7 6 6 6 5 4 4 4 4 3 2 6 5 2 2 3 1 1 1 1 2 4 4 3 6 3 9 4 0 2 1 3 6 5 4 4 6 6 6 4 3 4 4 4 4 4 4 5 5 5 6 15 18 18 19 20 22 23 24 24 24 24 25 25 26 26 25 25 25 25 25 25 25 24 23 23
9 8 8 7 7 7 7 7 7 7 6 7 7 7 6 5 3 4 4 4 5 4 5 3 1 2 1 1 2 1 1 3 3 5 11 2 1 5 7 4 4 5 5 4 5 6 5 4 4 4 4 4 4 4 4 5 6 6 9 11 17 17 17 18 19 20 21 22 23 24 24 25 25 25 26 26 27 27 27 26 26 26 25 24 23
9 8 8 8 8 8 7 7 7 7 7 7 7 6 6 4 4 3 3 4 5 7 5 5 4 1 1 1 2 2 2 1 0 1 4 12 14 2 5 4 6 5 6 7 4 5 7 5 4 4 5 5 4 3 4 4 4 5 5 12 16 17 17 18 19 19 20 22 23 23 25 25 26 26 26 26 27 27 28 27 27 27 26 26 25
8 9 9 8 8 8 7 7 7 7 7 7 6 7 7 7 6 5 4 3 4 5 6 6 5 5 2 1 2 1 1 1 0 1 2 4 11 13 16 9 4 3 1 2 5 7 7 6 4 5 6 5 4 3 4 4 5 4 6 12 16 18 19 19 19 19 19 20 21 23 23 24 25 26 27 27 26 26 27 28 28 29 28 27 26
8 8 8 8 8 7 7 8 8 7 7 7 7 7 6 6 6 6 5 4 3 5 6 6 5 4 3 4 1 1 2 1 1 1 0 4 8 10 11 16 20 15 13 7 3 3 5 5 7 7 5 5 4 3 3 3 4 4 5 15 18 19 19 18 18 19 20 21 22 23 24 25 26 26 27 27 27 27 26 27 28 29 29 29 29
9 9 10 9 8 7 7 7 6 6 7 7 8 8 7 7 6 5 5 6 5 5 4 4 4 4 3 5 4 4 4 2 2 1 2 3 5 7 7 7 11 16 15 11 6 7 6 6 6 6 4 4 4 2 2 2 3 5 13 16 18 18 19 20 20 21 21 22 24 25 26 27 28 29 29 28 28 27 27 28 29 29 29 29 29
10 10 10 10 9 8 7 7 7 7 8 7 7 7 7 6 6 6 5 4 4 5 5 5 4 4 3 3 3 4 4 4 3 3 4 5 4 9 9 8 8 8 8 11 12 10 7 5 5 5 5 4 3 1 1 2 3 9 11 13 19 21 22 22 22 22 23 23 24 25 26 27 28 29 30 30 29 28 27 27 28 29 30 30 30
12 13 12 13 11 10 9 9 8 8 7 7 7 7 7 7 7 5 6 5 6 6 6 6 6 5 4 3 3 2 3 3 3 3 3 3 4 8 8 5 10 11 9 6 5 5 7 6 5 5 4 3 1 0 1 3 4 10 17 11 23 24 24 24 24 24 24 24 24 25 27 28 29 29 28 28 28 28 28 27 28 29 30 31 31
14 15 13 14 11 10 9 8 7 7 8 8 8 7 7 7 6 7 6 5 5 6 7 6 5 4 3 3 2 2 2 1 2 1 3 4 6 6 10 8 8 12 6 5 4 1 3 4 4 3 3 1 1 2 4 5 6 13 20 15 15 21 23 24 25 24 24 24 26 27 29 29 29 27 27 27 27 27 27 28 29 30 31 31 31
12 10 11 13 12 11 10 10 9 9 8 8 7 7 7 6 6 7 6 6 6 7 7 7 7 5 4 3 2 1 2 2 1 4 2 4 5 6 6 13 9 6 6 5 7 6 6 3 4 1 3 1 3 6 7 8 11 18 18 11 10 19 24 26 27 27 27 27 28 29 29 28 28 27 28 28 29 29 29 30 30 31 31 32 32
9 10 11 12 12 12 11 11 10 9 9 9 9 8 8 8 7 7 7 4 6 7 6 7 6 6 4 4 3 2 1 2 2 3 3 4 4 4 5 5 8 12 6 8 4 4 5 1 1 3 2 4 5 5 8 9 8 17 16 12 12 14 22 26 26 27 27 27 27 28 28 28 28 28 29 29 30 30 31 31 31 32 31 31 32
10 10 11 11 11 12 12 11 11 10 9 9 9 9 9 8 8 8 8 6 7 7 7 7 6 5 4 3 3 1 1 1 1 2 4 3 4 5 5 5 5 6 10 8 9 1 3 1 1 2 5 5 4 5 7 7 10 14 11 11 12 12 19 25 25 25 26 28 28 29 30 30 30 30 31 30 30 30 30 30 30 31 32 32 33
10 9 11 13 12 12 11 11 10 10 10 9 9 9 9 8 8 8 7 7 6 5 5 5 5 4 3 3 2 2 1 1 2 2 2 3 4 4 5 5 5 7 6 8 12 2 4 1 3 2 1 5 5 6 4 6 11 13 11 11 11 11 22 25 26 27 28 29 29 29 30 30 30 30 30 30 30 31 31 31 31 31 32 33 35
10 10 10 11 11 11 11 11 11 11 10 10 10 10 10 9 8 7 6 6 6 6 5 5 4 5 4 3 2 2 1 1 1 1 1 2 4 3 4 5 5 6 7 6 10 3 5 3 2 3 3 6 6 7 7 7 9 14 11 10 11 18 25 20 25 26 27 28 29 29 29 30 30 30 30 30 31 31 31 32 32 32 32 33 33
11 11 11 12 12 12 11 12 12 11 12 11 11 10 9 8 8 7 6 6 6 6 5 5 4 5 4 4 3 3 2 2 1 2 2 2 1 3 3 4 4 4 4 7 9 19 2 6 3 2 4 6 6 9 11 9 9 14 12 12 12 19 13 12 19 24 26 27 27 29 31 31 31 31 31 31 32 32 32 32 33 33 33 32 32
12 13 13 13 12 12 12 12 13 13 13 12 10 9 8 8 7 7 7 7 7 6 7 6 5 6 5 4 3 3 3 2 2 2 2 2 2 3 3 4 5 4 4 6 11 16 15 3 8 1 4 8 11 5 13 8 11 10 10 11 11 11 12 12 12 18 23 27 29 29 30 31 31 30 30 31 31 32 32 33 32 32 31 31 32
13 14 14 12 12 13 12 12 11 11 11 11 10 9 10 10 9 7 8 9 8 8 7 7 6 5 5 5 4 5 4 3 2 3 3 2 3 3 4 4 4 5 3 4 7 9 18 9 4 10 2 5 11 4 11 14 11 12 14 10 10 10 10 10 11 12 21 25 28 30 30 31 31 31 31 31 31 31 32 31 31 31 31 31 31
11 13 13 13 13 13 12 11 11 11 11 11 10 10 10 11 11 9 8 8 9 9 8 8 7 6 6 5 5 5 3 3 3 3 3 3 3 4 5 4 4 5 5 5 7 11 12 15 6 13 5 3 10 13 11 12 13 12 15 13 9 9 9 11 11 10 18 25 29 31 30 30 31 31 31 31 30 31 31 31 31 30 31 31 32
13 11 12 13 13 13 13 12 11 10 10 9 9 9 10 10 10 10 9 8 8 8 8 8 8 7 7 6 5 5 4 4 3 4 4 4 4 4 5 5 5 6 6 6 7 9 11 13 17 5 15 10 9 9 11 13 13 13 10 12 11 11 11 10 11 12 14 25 28 31 30 30 31 31 32 32 32 31 31 31 31 32 34 34 34
12 12 11 11 13 13 13 13 12 11 11 10 10 10 9 8 10 10 10 9 8 8 8 8 8 7 7 6 6 6 5 5 5 5 5 6 5 5 5 5 5 5 5 6 7 8 10 13 16 13 10 13 8 9 8 11 13 10 10 13 13 12 13 12 10 10 17 23 25 28 30 31 31 32 33 33 33 33 33 33 34 33 33 33 32
13 12 13 12 13 14 12 12 12 11 10 10 10 11 10 9 9 8 8 8 8 8 7 7 7 7 7 6 6 6 6 7 6 6 6 8 6 6 6 6 6 6 6 7 8 9 11 13 14 18 13 10 16 9 6 13 11 15 18 16 10 9 12 13 11 8 8 9 9 12 18 22 25 31 33 33 34 33 33 33 33 33 32 31 31
14 13 13 13 11 13 12 11 12 11 11 10 10 10 9 9 9 9 9 8 8 7 7 7 6 6 6 6 7 7 7 7 7 7 7 8 7 7 7 7 7 7 7 7 8 10 11 13 14 13 15 14 10 18 11 4 11 10 14 20 22 10 8 13 17 10 8 11 16 22 22 24 28 26 29 33 34 34 34 33 33 32 31 29 27
15 15 15 14 11 10 11 11 11 11 11 10 9 9 9 10 10 9 9 9 9 8 7 7 8 8 8 7 7 7 8 8 8 8 8 7 6 7 7 7 7 7 7 7 8 9 9 10 10 11 11 12 15 12 11 10 13 11 7 12 20 25 20 14 12 11 9 11 14 12 13 17 19 24 28 28 31 33 33 31 33 31 28 27 27
12 13 13 13 13 12 10 11 11 10 11 11 10 11 12 11 10 11 10 10 10 9 8 8 8 8 7 7 7 8 9 12 14 11 10 9 6 6 7 7 7 7 7 7 7 9 10 11 12 11 13 16 13 16 15 13 10 15 13 11 13 17 18 18 18 8 5 10 11 12 12 9 11 12 11 12 13 20 23 26 19 22 25 26 29
13 12 13 12 13 14 14 12 12 11 11 10 13 21 17 13 12 10 9 9 10 9 9 8 8 8 8 7 7 13 14 14 13 13 12 12 13 9 6 6 6 7 8 8 8 8 9 9 10 11 12 13 13 11 13 11 9 12 15 13 18 18 16 19 18 14 4 8 13 12 11 8 10 14 12 14 12 12 7 8 10 16 23 31 32
14 13 13 14 13 13 15 15 15 13 11 11 22 23 23 22 14 11 11 10 9 9 9 9 8 8 8 8 8 10 10 10 9 11 11 12 12 13 15 15 13 9 7 9 10 9 10 11 10 10 11 14 14 16 14 17 18 15 17 20 16 18 17 19 23 20 8 3 10 16 15 13 11 15 13 11 9 8 11 13 24 32 34 32 32
13 12 14 15 15 14 13 14 14 14 12 16 25 24 24 23 18 11 10 10 10 9 9 9 8 8 9 8 8 7 6 5 4 5 9 12 12 13 15 15 16 17 17 13 11 10 10 11 12 12 12 15 19 11 17 17 17 21 22 16 20 16 22 18 20 19 17 9 14 18 19 16 11 14 16 14 11 11 14 23 33 34 34 33 33
12 15 16 14 14 14 14 16 15 13 12 21 25 25 24 23 23 16 10 10 10 10 9 10 10 9 9 8 7 6 5 10 7 5 5 7 11 15 15 16 17 18 18 20 21 16 11 13 13 13 13 15 19 20 16 16 19 21 18 20 19 16 19 20 21 21 19 11 11 15 18 17 12 13 17 16 11 12 16 24 33 34 34 34 33
14 14 13 15 14 15 15 15 13 12 13 19 25 24 24 24 23 17 10 11 10 10 11 11 10 10 10 8 8 6 5 6 6 7 8 8 8 10 11 10 10 14 18 19 20 23 20 15 15 17 16 12 18 17 18 20 17 16 19 19 19 19 17 22 20 23 19 12 10 12 18 20 13 13 19 15 10 12 13 21 31 32 33 34 33
16 16 16 15 14 13 12 12 12 12 11 20 23 24 24 24 23 16 9 9 9 9 10 10 10 10 10 8 7 7 7 7 7 9 8 8 8 9 10 9 7 6 9 12 12 11 11 11 13 17 16 18 15 18 18 16 18 19 16 20 19 17 19 16 18 19 16 15 11 11 18 16 13 13 18 13 12 11 14 19 30 31 32 32 33
10 9 9 11 13 14 12 12 11 11 10 21 23 23 24 24 25 11 10 9 9 8 9 9 10 8 7 6 6 7 7 7 11 13 10 8 7 6 6 7 9 11 11 11 15 16 16 15 14 14 15 17 23 22 21 18 16 16 16 17 16 16 16 19 20 20 17 8 9 11 13 15 14 12 15 10 11 14 12 11 20 30 33 34 34
13 12 12 12 10 12 12 12 11 9 9 18 24 23 23 24 18 8 9 8 7 7 8 9 6 5 4 5 6 6 7 8 11 12 11 10 5 6 8 11 10 8 7 7 17 21 20 23 25 27 29 30 29 27 28 32 27 22 17 15 16 13 15 19 19 17 17 14 9 10 10 15 14 11 14 11 10 14 16 13 13 21 30 32 32
13 12 10 9 9 10 13 13 12 11 10 15 24 24 23 24 14 9 8 8 7 6 5 5 3 3 5 12 10 7 8 8 11 11 10 9 5 8 9 8 7 9 10 9 8 9 18 23 26 26 22 21 26 30 31 29 29 23 14 16 16 14 19 17 19 17 19 17 10 7 13 18 16 11 11 12 13 13 15 12 13 15 23 25 30
10 9 9 10 9 9 10 11 14 12 10 14 24 23 24 24 15 8 8 8 7 6 5 4 4 3 5 8 12 10 9 8 11 10 11 9 6 6 7 8 9 8 8 8 9 11 11 9 8 7 11 15 14 12 16 26 27 25 18 17 14 14 16 17 15 16 15 17 6 9 13 15 11 14 9 12 12 12 8 9 10 9 9 9 11
Wind_Direction
148 149 144 139 140 140 140 143 139 150 133 122 118 107 80 75 65 61 54 45 38 29 22 18 15 13 12 356 354 347 342 336 333 329 328 324 324 320 324 328 331 332 337 342 344 348 349 351 352 353 351 349 348 348 350 350 349 350 350 349 346 343 342 340 336 331 326 323 322 318 314 311 310 309 306 304 300 287 280 281 273 258 248 242 234
152 151 146 148 146 143 139 149 144 155 139 127 149 118 116 90 78 74 68 54 47 26 31 16 12 8 8 356 347 340 333 331 329 327 323 322 319 317 317 321 323 327 332 337 344 348 350 352 355 355 354 352 352 351 353 352 353 353 352 350 347 344 342 342 341 338 332 327 325 325 324 320 316 313 308 300 290 290 288 276 274 273 259 246 248
152 153 148 149 148 146 150 153 143 155 147 136 138 122 110 101 103 94 78 68 54 36 38 20 5 3 359 356 338 334 329 328 323 322 322 318 316 314 314 316 317 320 324 334 342 346 347 350 353 356 355 356 353 353 353 353 353 353 352 350 348 346 345 343 343 341 338 335 330 327 328 329 331 332 327 314 295 289 289 285 275 270 272 266 250
154 155 153 153 152 150 156 151 156 159 144 134 122 117 109 113 110 106 105 92 72 52 41 37 10 355 349 345 335 329 323 323 322 320 318 317 315 315 315 312 311 314 319 329 338 342 341 345 350 352 355 356 354 353 352 352 352 351 350 349 348 347 347 347 345 342 340 341 341 339 335 334 333 333 335 335 328 308 291 285 279 269 265 267 268
160 159 156 154 152 151 157 159 161 151 141 133 119 109 94 97 90 106 95 84 80 51 50 51 24 349 345 328 329 316 310 314 311 314 315 314 315 313 313 313 311 314 318 324 331 335 333 334 341 344 348 349 351 351 351 351 351 350 348 348 347 347 349 351 349 346 343 342 343 344 341 337 335 333 331 331 331 330 323 303 286 276 268 263 262
158 159 154 152 154 157 157 161 164 149 140 129 116 125 119 114 125 98 83 73 61 45 34 19 8 338 327 308 306 296 304 302 301 302 304 304 306 309 307 310 311 311 312 320 329 327 320 322 330 339 343 345 346 347 349 350 351 349 346 344 346 350 351 350 346 344 343 344 345 345 342 339 337 334 332 329 328 327 326 324 310 291 279 268 264
163 157 158 153 156 159 161 167 160 150 132 140 126 125 124 119 114 90 76 68 66 54 48 28 347 340 324 312 297 297 293 289 296 297 297 295 304 300 304 303 303 303 310 325 334 324 317 322 328 337 345 349 350 350 349 349 350 347 344 346 348 349 346 342 339 338 338 341 343 344 346 347 345 342 338 335 330 325 323 321 320 315 297 281 274
162 158 155 158 159 163 167 162 160 139 135 128 116 115 107 95 75 112 94 61 61 31 46 21 348 324 315 308 297 293 295 291 292 290 284 294 296 303 305 307 314 320 324 327 323 318 318 323 332 344 350 352 353 353 351 347 345 349 352 348 343 342 341 339 337 336 337 340 341 343 345 344 341 339 338 337 337 333 327 321 319 316 313 301 283
163 160 152 158 160 160 167 165 154 140 134 125 115 132 114 99 81 90 106 112 73 42 17 17 341 321 310 304 297 297 289 293 291 284 293 292 295 294 304 306 306 309 307 306 314 313 320 327 336 341 344 348 353 352 349 348 354 353 347 342 339 338 336 333 332 333 335 337 338 338 339 338 337 335 334 333 331 331 330 326 321 317 313 309 302
162 159 151 156 160 159 164 161 146 136 130 126 132 101 103 111 106 69 98 101 73 53 16 356 341 320 315 305 298 293 284 289 288 291 291 294 301 305 296 299 307 292 290 305 300 314 325 329 339 345 344 347 351 354 355 354 348 342 338 337 335 333 330 327 328 329 330 332 333 335 336 337 336 335 333 331 329 328 329 331 329 323 314 308 305
161 158 151 157 158 159 160 162 145 139 131 128 117 109 102 84 116 81 39 91 108 76 53 349 327 313 304 297 293 288 286 281 285 289 279 273 292 294 302 305 299 291 305 303 310 332 332 336 348 351 341 343 351 352 347 344 343 341 337 334 332 330 326 324 325 326 328 330 331 331 330 332 332 332 330 328 327 326 328 329 329 329 330 324 310
161 160 154 158 160 165 161 159 150 141 139 138 146 138 139 118 133 123 98 65 43 73 51 16 321 300 291 294 282 288 287 285 275 268 287 299 275 284 304 304 300 295 294 287 314 321 336 355 7 356 355 349 351 349 346 347 348 342 337 334 330 327 324 323 324 325 327 328 327 324 324 325 327 327 327 325 323 323 323 324 324 324 324 325 325
164 161 163 161 163 162 157 162 154 150 150 164 162 162 160 155 157 150 133 99 48 0 17 69 27 333 267 271 309 281 283 292 273 213 299 301 290 310 304 316 309 317 297 305 346 357 7 12 6 2 352 351 347 344 344 347 346 339 334 329 327 325 325 325 326 325 323 321 319 319 319 321 323 323 323 322 320 320 319 319 319 319 318 319 320
168 167 166 167 166 169 169 169 161 161 163 156 155 157 151 149 143 80 348 118 106 48 359 79 21 46 327 335 336 321 310 15 191 297 353 341 325 271 300 305 313 304 321 356 350 358 5 9 6 356 351 350 344 344 343 341 338 335 331 330 331 329 325 321 319 318 318 318 318 318 319 320 320 320 319 317 317 317 316 315 314 314 314 314 314
173 173 171 176 173 168 175 168 168 161 153 157 158 162 163 167 178 150 110 37 93 48 49 70 129 264 205 345 334 12 333 354 305 338 331 308 278 353 349 327 307 306 328 357 351 350 357 8 2 1 347 342 342 345 342 335 332 331 332 334 330 324 320 318 317 319 320 320 319 319 318 318 317 316 316 315 314 313 312 311 311 310 309 309 309
177 174 176 176 174 175 168 170 173 168 161 160 165 170 158 158 162 186 139 101 101 64 47 76 102 50 6 79 271 105 352 327 333 296 231 230 355 339 354 327 308 324 360 1 335 351 349 360 360 340 330 338 349 339 330 325 325 328 327 326 324 322 321 320 319 320 320 320 319 318 317 317 316 315 314 313 312 311 309 308 306 306 306 305 305
179 183 178 178 175 172 172 172 165 167 157 160 166 169 166 170 163 167 179 142 130 128 25 65 71 80 140 43 348 7 211 257 322 284 350 327 3 319 351 337 327 330 353 340 351 356 351 338 323 323 325 341 330 317 312 313 316 311 314 314 309 313 316 317 318 318 318 318 318 318 316 315 315 313 313 312 311 309 307 305 304 303 302 301 301
183 181 179 173 178 174 169 166 168 168 167 165 158 145 162 162 184 168 167 152 136 121 117 28 85 110 148 150 167 202 302 294 14 312 282 262 204 164 11 318 334 332 342 352 349 339 329 315 315 316 325 320 308 305 307 307 305 302 302 303 315 318 318 316 316 317 318 318 317 315 313 313 313 313 312 311 310 308 306 304 302 301 299 297 296
183 180 179 177 173 173 172 174 171 168 164 152 159 165 166 173 169 164 183 148 123 120 142 162 24 20 61 101 97 81 119 5 317 317 322 348 145 353 346 338 360 353 337 331 330 319 311 302 301 306 309 301 301 305 308 307 308 311 317 318 318 318 318 317 316 315 315 315 315 315 315 313 313 312 311 311 310 309 306 303 300 298 297 295 293
177 181 179 180 177 176 174 171 170 170 164 167 163 160 150 153 166 169 169 157 143 132 142 146 126 225 32 38 26 63 81 115 96 286 277 309 308 278 191 87 21 329 308 311 317 309 299 294 296 303 299 295 297 302 310 313 313 315 315 312 320 320 319 318 318 318 318 318 317 315 314 313 312 311 310 309 309 307 305 303 299 297 296 294 293
183 180 184 182 180 178 174 172 171 174 168 158 156 155 157 154 150 148 157 162 139 136 122 148 133 171 101 6 72 65 38 43 265 122 268 315 298 321 313 307 293 203 228 272 299 291 285 288 291 293 288 292 293 299 313 313 314 315 316 318 323 322 320 319 319 319 320 322 321 319 317 316 315 314 312 310 307 305 303 302 300 298 295 293 292
184 184 179 185 181 177 177 179 178 172 167 162 154 154 157 158 162 159 160 148 140 129 135 143 140 149 147 156 122 57 44 10 75 111 244 200 263 306 313 323 327 321 325 310 227 259 283 277 282 278 273 263 280 295 298 310 314 324 318 326 325 322 321 322 324 324 322 320 318 317 316 314 313 312 312 310 309 306 302 298 298 296 295 293 292
175 183 184 180 182 179 179 181 175 172 162 161 167 162 161 157 158 153 156 152 150 134 126 131 136 142 156 158 176 161 183 178 220 208 188 250 291 264 276 284 292 303 307 315 315 298 275 260 255 256 256 271 273 286 299 311 328 325 333 331 328 327 327 324 322 319 316 314 314 311 310 310 309 307 305 303 301 301 300 300 298 294 291 290 289
181 178 184 179 178 182 178 173 177 173 174 167 159 156 153 148 152 155 162 155 143 135 133 131 135 140 157 167 171 165 164 190 211 191 195 244 245 277 282 292 272 238 279 302 301 292 275 260 234 238 253 255 270 260 329 3 346 346 342 338 335 330 323 319 316 313 310 309 307 306 306 306 306 304 302 299 295 292 293 293 294 296 296 292 289
192 185 186 178 177 177 178 180 180 181 166 162 160 155 153 154 156 157 156 157 156 144 137 150 150 156 181 177 162 156 184 177 176 195 216 229 250 284 277 265 277 284 275 241 262 261 259 264 251 228 214 231 210 89 43 23 9 355 346 343 329 320 317 314 312 309 307 306 306 305 305 304 302 301 300 299 297 289 288 291 291 290 289 290 289
189 194 180 176 179 180 178 178 172 167 167 164 159 158 155 154 155 157 162 161 146 142 141 143 145 156 147 154 158 177 201 198 212 232 270 291 284 282 300 285 271 278 261 257 210 273 272 244 243 232 276 297 11 48 42 25 21 351 335 328 323 320 317 314 311 308 306 305 304 303 302 302 300 300 301 300 298 294 291 290 291 290 289 288 287
194 188 174 179 176 170 172 171 171 170 166 163 159 154 152 148 154 158 155 158 152 143 141 142 146 151 152 156 170 166 214 219 215 268 243 246 262 287 306 312 301 245 273 231 242 206 226 238 228 247 248 9 51 42 24 5 348 339 335 335 323 317 314 311 308 306 304 304 303 302 301 301 300 300 300 298 296 295 293 292 289 288 287 287 288
186 178 181 177 174 171 169 172 168 169 169 164 160 158 158 155 157 159 162 169 155 150 152 143 150 154 155 153 138 185 180 216 230 245 243 246 259 263 270 280 297 309 306 293 162 274 176 153 273 223 149 96 57 54 10 357 348 336 334 326 319 312 310 307 305 304 306 307 308 307 307 305 303 300 297 295 292 289 288 287 288 288 287 285 283
183 180 175 176 174 171 170 169 171 169 166 166 163 161 160 160 163 163 167 172 161 160 152 147 152 145 137 148 157 159 179 193 249 237 243 257 253 249 243 245 270 281 314 295 297 172 205 131 157 321 107 95 59 26 9 356 338 327 322 317 311 307 305 305 307 309 310 310 309 307 304 302 299 297 295 293 291 290 288 287 285 284 285 285 283
174 177 175 175 173 171 169 170 170 168 168 165 164 163 161 165 168 172 170 164 158 147 141 133 134 130 129 120 131 139 161 182 230 248 243 246 249 248 239 250 232 252 272 298 296 148 268 140 133 159 61 25 10 347 10 326 317 315 306 298 295 291 299 305 309 309 309 309 307 305 302 299 297 294 292 290 290 289 288 288 287 286 284 284 284
171 172 176 176 174 174 170 169 168 170 167 168 166 167 168 166 169 167 166 159 149 136 134 128 134 128 132 139 135 139 136 175 223 264 276 256 268 247 263 250 242 245 260 268 293 281 107 336 90 76 20 338 344 334 325 313 310 305 295 289 290 296 302 301 303 304 305 305 304 304 302 298 296 294 292 291 290 289 288 287 286 285 284 282 281
176 171 176 179 177 174 175 170 170 169 170 171 172 170 166 167 160 157 163 154 146 140 135 128 132 134 135 139 143 135 135 132 183 255 249 271 254 279 287 289 284 287 294 283 266 278 261 304 279 319 336 336 335 320 308 307 296 289 291 288 289 296 297 293 295 300 301 302 301 301 300 297 294 292 290 289 287 287 287 285 285 284 283 282 281
171 174 177 179 177 175 173 176 174 173 172 173 173 166 164 158 159 157 159 155 146 144 138 136 138 139 144 145 148 147 142 163 210 210 235 231 256 265 266 273 272 278 285 278 280 286 292 153 293 27 344 334 306 308 296 294 294 289 274 285 287 288 289 289 289 290 294 297 297 295 295 293 291 289 288 287 287 286 286 285 283 283 282 281 280
175 176 176 175 175 173 174 177 179 177 175 171 167 163 162 162 163 162 164 159 154 147 143 147 145 148 148 146 151 152 158 175 200 213 215 231 253 255 261 265 266 275 274 290 277 284 292 309 295 306 164 311 289 292 294 302 288 290 289 281 283 281 283 283 281 282 287 292 294 295 293 293 291 289 287 287 286 286 285 285 283 281 281 280 280
178 178 175 172 173 171 173 176 177 179 176 171 170 167 168 167 166 166 165 161 156 153 155 156 154 150 150 157 169 159 165 172 201 212 215 223 233 244 253 256 265 269 278 271 287 288 289 291 322 306 319 341 295 302 298 289 289 288 291 290 279 275 268 275 278 279 285 289 293 294 292 290 289 288 286 287 287 287 285 283 282 281 282 286 287
176 179 172 171 168 171 171 173 177 177 174 172 169 173 170 167 164 164 163 163 158 157 155 154 154 158 159 162 171 162 165 177 203 205 212 207 224 234 245 252 251 263 266 260 259 272 287 293 302 310 304 309 299 287 294 289 289 294 281 284 283 275 269 268 268 275 281 285 291 295 292 291 291 288 287 286 285 283 283 283 283 285 285 285 283
177 169 172 169 170 171 174 173 173 175 177 172 171 170 169 168 167 164 164 160 157 153 151 153 156 156 163 167 166 161 168 184 202 202 207 213 221 219 236 243 247 255 254 254 258 256 274 281 293 295 295 295 287 281 287 292 304 292 279 283 289 289 287 269 265 268 272 279 283 288 289 288 288 286 284 283 282 281 281 281 280 281 281 280 280
170 174 170 174 174 174 172 171 171 173 172 174 173 171 169 165 164 164 157 152 149 149 151 154 154 159 163 165 166 169 181 192 204 201 204 213 214 216 225 232 240 244 246 253 258 262 271 278 286 298 297 293 306 279 292 303 303 310 308 297 276 270 281 284 269 265 268 272 276 275 280 282 283 283 282 281 279 278 278 277 277 278 278 277 275
169 172 176 173 177 172 169 165 169 169 170 172 172 170 167 166 164 160 154 150 147 146 152 150 150 159 164 169 174 180 190 201 202 204 204 208 209 213 217 225 234 237 249 254 253 263 269 278 281 275 286 291 281 298 304 265 288 293 302 307 301 269 254 278 291 288 279 274 268 273 280 285 287 285 282 280 279 278 276 275 275 274 272 277 284
175 175 173 173 169 167 166 166 166 164 167 170 170 169 168 168 166 160 158 152 150 151 151 159 169 175 179 178 183 192 197 205 204 206 202 207 211 212 222 228 231 238 247 251 252 254 260 260 265 282 280 288 298 278 283 303 298 284 249 287 294 303 309 292 267 283 289 280 289 282 268 273 276 277 277 276 275 275 275 274 272 270 277 288 293
174 174 170 167 162 163 161 163 162 165 170 175 174 172 169 172 168 163 159 157 156 157 159 167 175 178 181 185 192 199 207 215 219 220 214 210 201 215 230 225 232 237 242 242 246 256 263 265 272 275 281 288 286 295 299 296 276 282 292 279 270 282 296 297 296 273 240 272 274 278 280 263 273 273 272 269 265 264 265 264 268 283 289 291 287
169 168 168 168 167 165 164 166 167 171 177 178 182 180 177 169 167 164 159 160 159 159 161 166 177 182 187 190 198 209 219 224 227 232 237 243 244 241 222 211 211 219 230 238 247 249 255 261 261 271 275 273 280 276 279 280 276 286 292 295 294 298 298 292 287 289 275 291 291 280 278 276 279 281 275 272 268 259 264 277 278 280 282 282 281
170 169 168 168 171 171 170 170 173 178 181 183 184 182 180 175 165 164 162 161 161 161 166 169 173 180 187 193 196 211 219 228 234 240 248 250 255 258 261 261 259 257 257 260 261 260 267 270 275 270 269 277 281 290 287 297 302 301 299 299 294 293 293 300 296 302 271 280 287 291 286 282 282 283 280 266 261 262 270 273 278 281 280 278 277
174 168 172 176 172 171 173 176 179 180 182 185 185 184 181 177 171 163 161 161 163 165 167 171 173 177 185 189 194 189 197 193 197 229 247 254 258 261 263 265 265 264 264 265 270 270 267 277 281 276 279 283 291 294 295 301 299 298 297 292 288 292 289 291 284 284 293 306 286 288 286 282 271 271 273 263 257 260 263 271 275 277 276 277 277
165 175 180 171 176 175 176 178 183 182 171 185 185 184 182 177 172 164 164 162 164 167 171 175 178 181 182 184 188 196 185 218 236 234 224 242 257 263 264 264 267 266 269 270 271 272 280 278 278 281 280 289 288 288 290 292 294 290 293 290 289 284 280 278 279 281 282 280 277 277 283 279 270 260 266 263 255 260 265 267 271 272 273 274 274
176 177 175 179 176 179 181 181 179 181 182 188 187 185 182 177 172 163 163 163 166 172 174 178 182 182 184 183 178 185 188 203 218 222 228 235 237 244 248 248 249 256 262 268 274 276 276 275 275 274 278 274 283 287 289 291 290 288 290 285 281 281 274 272 276 276 279 280 262 277 276 278 270 264 264 269 254 248 252 257 266 269 272 272 273
178 180 179 179 181 178 178 178 178 181 186 191 189 186 182 177 171 161 163 165 170 175 177 181 183 183 180 171 181 189 196 209 211 223 225 231 234 239 243 241 239 250 266 265 260 259 262 267 269 276 280 282 279 285 287 287 282 278 274 279 284 287 285 285 282 275 274 270 258 247 269 275 272 258 263 266 266 252 248 256 264 268 271 272 271
180 174 179 179 177 178 175 173 173 182 186 196 190 187 183 180 174 161 166 170 171 172 177 179 179 173 171 178 181 198 206 211 225 238 247 248 242 249 263 273 269 260 254 256 271 279 282 282 280 281 283 285 286 285 286 289 293 299 298 293 291 291 294 291 286 290 285 270 252 241 257 266 265 265 272 264 259 265 257 246 255 266 270 270 270
176 180 180 178 174 170 170 174 175 177 182 196 190 185 183 180 176 148 162 164 169 168 176 177 173 169 174 186 196 205 217 216 232 240 242 254 263 264 265 262 259 258 261 282 285 282 283 286 286 286 285 286 289 293 298 298 296 298 300 296 287 295 287 285 283 283 280 286 265 236 252 265 268 273 280 273 264 266 267 262 258 262 265 265 267
179 179 168 164 166 172 173 177 177 173 182 193 188 186 182 184 169 154 160 163 165 163 162 167 161 174 202 212 214 219 225 231 234 242 249 258 256 257 259 265 274 279 277 280 291 285 286 282 282 283 289 296 301 300 298 297 294 293 287 281 288 293 285 283 285 285 287 281 262 245 260 260 276 270 272 272 265 249 261 263 259 256 257 259 262
172 160 162 165 165 172 179 177 179 178 177 189 186 185 183 184 170 152 159 160 164 170 164 163 172 188 214 229 232 230 232 238 245 254 262 265 264 262 280 287 278 271 281 295 287 285 275 270 284 302 297 296 298 294 288 290 290 289 282 279 281 278 278 279 275 281 281 277 247 224 255 268 269 268 261 284 277 267 231 259 254 248 246 244 249